CD170 EDJA-EDNY

Flight info

Callsign CD170
Flight time 0h 18m
Altitude 3000
Route DCT
Aircraft DR40

Departure

Time 2026-04-26 19:42
Airport Memmingen Allgau Airport (EDJA)

Arrival

Time 2026-04-26 20:00
Airport Bodensee Airport Friedrichshafen (EDNY)
Time Latitude Longitude Altitude Speed Heading
2026-04-26 19:39 47.98649 10.22728 2082 ft 0 kts 194°
2026-04-26 19:40 47.98648 10.22727 2082 ft 2 kts 194°
2026-04-26 19:40 47.98606 10.22720 2084 ft 10 kts 183°
2026-04-26 19:40 47.98509 10.22687 2086 ft 18 kts 214°
2026-04-26 19:40 47.98417 10.22552 2090 ft 15 kts 193°
2026-04-26 19:41 47.98360 10.22600 2091 ft 11 kts 101°
2026-04-26 19:41 47.98418 10.22780 2088 ft 48 kts 59°
2026-04-26 19:41 47.98727 10.23573 2083 ft 129 kts 60°
2026-04-26 19:41 47.98885 10.23989 2074 ft 154 kts 60°
2026-04-26 19:42 48.00003 10.26672 2751 ft 208 kts 49°
2026-04-26 19:42 48.01191 10.28083 3363 ft 236 kts 26°
2026-04-26 19:42 48.02856 10.28700 4092 ft 259 kts
2026-04-26 19:42 48.04665 10.28065 4948 ft 278 kts 335°
2026-04-26 19:43 48.06469 10.26840 5994 ft 291 kts 336°
2026-04-26 19:43 48.08366 10.25613 7023 ft 304 kts 335°
2026-04-26 19:43 48.10310 10.24186 7980 ft 318 kts 331°
2026-04-26 19:43 48.12217 10.22449 8971 ft 331 kts 325°
2026-04-26 19:44 48.14063 10.20281 9962 ft 345 kts 318°
2026-04-26 19:44 48.15739 10.17605 10544 ft 347 kts 308°
2026-04-26 19:44 48.16866 10.14559 10521 ft 328 kts 290°
2026-04-26 19:44 48.17194 10.11178 9817 ft 334 kts 268°
2026-04-26 19:45 48.16645 10.07844 9149 ft 336 kts 250°
2026-04-26 19:45 48.15616 10.04638 8144 ft 346 kts 241°
2026-04-26 19:45 48.14041 10.01905 7449 ft 348 kts 221°
2026-04-26 19:45 48.12136 9.99740 7099 ft 337 kts 217°
2026-04-26 19:46 48.10280 9.97758 7010 ft 317 kts 217°
2026-04-26 19:46 48.08531 9.95906 7007 ft 297 kts 217°
2026-04-26 19:46 48.06870 9.94270 7004 ft 280 kts 212°
2026-04-26 19:46 48.05208 9.92919 6988 ft 264 kts 209°
2026-04-26 19:47 48.03475 9.91580 7076 ft 304 kts 208°
2026-04-26 19:47 48.02823 9.91076 7066 ft 322 kts 208°
2026-04-26 19:47 47.99035 9.88354 7091 ft 393 kts 204°
2026-04-26 19:47 47.96847 9.87054 9398 ft 304 kts 202°
2026-04-26 19:48 47.95013 9.86025 10200 ft 260 kts 203°
2026-04-26 19:48 47.93415 9.85147 10356 ft 239 kts 203°
2026-04-26 19:48 47.91763 9.84237 9463 ft 264 kts 202°
2026-04-26 19:48 47.89998 9.83254 8763 ft 276 kts 202°
2026-04-26 19:49 47.88168 9.82221 8079 ft 286 kts 202°
2026-04-26 19:49 47.86276 9.81123 7421 ft 293 kts 205°
2026-04-26 19:49 47.84632 9.79411 7068 ft 285 kts 226°
2026-04-26 19:49 47.83328 9.77267 6995 ft 270 kts 234°
2026-04-26 19:50 47.82471 9.74937 6976 ft 253 kts 252°
2026-04-26 19:50 47.82225 9.72455 6976 ft 235 kts 275°
2026-04-26 19:50 47.82469 9.70066 7009 ft 248 kts 283°
2026-04-26 19:50 47.82909 9.67294 7020 ft 301 kts 284°
2026-04-26 19:51 47.83274 9.65180 7017 ft 335 kts 285°
2026-04-26 19:51 47.83789 9.61583 7006 ft 363 kts 279°
2026-04-26 19:51 47.84063 9.57905 6994 ft 363 kts 275°
2026-04-26 19:51 47.84201 9.54125 6984 ft 362 kts 272°
2026-04-26 19:52 47.84278 9.50383 6987 ft 362 kts 272°
2026-04-26 19:52 47.84346 9.46639 7006 ft 361 kts 272°
2026-04-26 19:52 47.84419 9.42894 7000 ft 361 kts 272°
2026-04-26 19:52 47.84504 9.39162 6995 ft 361 kts 272°
2026-04-26 19:53 47.84599 9.35421 7003 ft 361 kts 273°
2026-04-26 19:53 47.84689 9.31718 6990 ft 364 kts 270°
2026-04-26 19:53 47.84243 9.28116 6821 ft 347 kts 248°
2026-04-26 19:53 47.82897 9.25252 6555 ft 332 kts 221°
2026-04-26 19:54 47.80954 9.23702 6298 ft 313 kts 193°
2026-04-26 19:54 47.78840 9.23381 6057 ft 300 kts 181°
2026-04-26 19:54 47.76775 9.23362 5605 ft 296 kts 179°
2026-04-26 19:54 47.74747 9.23372 5116 ft 289 kts 179°
2026-04-26 19:55 47.72688 9.23369 4266 ft 301 kts 179°
2026-04-26 19:55 47.70592 9.23350 3518 ft 308 kts 179°
2026-04-26 19:55 47.68463 9.23319 3100 ft 301 kts 179°
2026-04-26 19:55 47.66420 9.23282 2980 ft 284 kts 179°
2026-04-26 19:56 47.64501 9.23245 2978 ft 266 kts 179°
2026-04-26 19:56 47.62711 9.23209 2976 ft 249 kts 178°
2026-04-26 19:56 47.61034 9.23200 2967 ft 233 kts 174°
2026-04-26 19:56 47.59552 9.23752 2946 ft 215 kts 148°
2026-04-26 19:57 47.58510 9.25230 2700 ft 207 kts 116°
2026-04-26 19:57 47.58190 9.27285 2661 ft 220 kts 85°
2026-04-26 19:57 47.58679 9.29566 3309 ft 244 kts 64°
2026-04-26 19:57 47.59522 9.31826 3908 ft 244 kts 60°
2026-04-26 19:58 47.60364 9.33911 3810 ft 233 kts 59°
2026-04-26 19:58 47.61215 9.36019 3179 ft 244 kts 59°
2026-04-26 19:58 47.62103 9.38245 2526 ft 256 kts 59°
2026-04-26 19:58 47.62980 9.40466 2351 ft 244 kts 59°
2026-04-26 19:59 47.63785 9.42522 2312 ft 215 kts 60°
2026-04-26 19:59 47.64481 9.44302 2165 ft 186 kts 59°
2026-04-26 19:59 47.65107 9.45864 1846 ft 168 kts 59°
2026-04-26 19:59 47.65649 9.47299 1633 ft 153 kts 60°
2026-04-26 20:00 47.66160 9.48621 1504 ft 139 kts 59°
2026-04-26 20:00 47.66615 9.49786 1406 ft 122 kts 59°
2026-04-26 20:00 47.66998 9.50795 1355 ft 89 kts 60°
2026-04-26 20:00 47.67131 9.51148 1364 ft 18 kts 61°
2026-04-26 20:01 47.67234 9.51425 1366 ft 62 kts 61°
2026-04-26 20:01 47.67598 9.52368 1377 ft 146 kts 58°
2026-04-26 20:01 47.68214 9.53841 1749 ft 185 kts 57°
2026-04-26 20:01 47.68955 9.55561 2472 ft 210 kts 56°
2026-04-26 20:02 47.70190 9.56892 2441 ft 268 kts 12°